RYR69D EBCI-LIBP

Flight info

Callsign RYR69D
Flight time 1h 49m
Altitude 37000
Route SOPOK Y863 ROPUV L607 UTABA DCT BEMKI DCT ELMEM DCT GIRIS DCT LAPVO Y579 INKIM
Aircraft B738/M-SDE2E3FGHIRWXY/LB1

Departure

Time 2026-05-06 16:51
Airport Brussels South Charleroi Airport (EBCI)

Arrival

Time 2026-05-06 18:40
Airport Abruzzo Airport (LIBP)
Time Latitude Longitude Altitude Speed Heading
2026-05-06 16:20 50.46924 4.47289 624 ft 0 kts 335°
2026-05-06 16:42 50.46907 4.47301 624 ft 4 kts 338°
2026-05-06 16:42 50.46883 4.47307 625 ft 4 kts 21°
2026-05-06 16:42 50.46864 4.47283 616 ft 3 kts 64°
2026-05-06 16:43 50.46861 4.47271 627 ft 0 kts 65°
2026-05-06 16:46 50.46861 4.47273 627 ft 1 kts 65°
2026-05-06 16:46 50.46873 4.47313 622 ft 8 kts 65°
2026-05-06 16:46 50.46903 4.47417 621 ft 13 kts 65°
2026-05-06 16:47 50.46937 4.47574 612 ft 13 kts 99°
2026-05-06 16:47 50.46866 4.47648 617 ft 13 kts 156°
2026-05-06 16:47 50.46816 4.47684 617 ft 0 kts 156°
2026-05-06 16:49 50.46795 4.47698 612 ft 7 kts 156°
2026-05-06 16:49 50.46732 4.47738 620 ft 12 kts 172°
2026-05-06 16:49 50.46672 4.47651 617 ft 13 kts 245°
2026-05-06 16:50 50.46616 4.47458 613 ft 43 kts 246°
2026-05-06 16:50 50.46394 4.46691 618 ft 110 kts 245°
2026-05-06 16:50 50.46000 4.45331 640 ft 160 kts 246°
2026-05-06 16:50 50.45524 4.43685 1163 ft 170 kts 249°
2026-05-06 16:51 50.45007 4.41906 1654 ft 187 kts 249°
2026-05-06 16:51 50.44451 4.39989 2230 ft 197 kts 247°
2026-05-06 16:51 50.43869 4.38003 2885 ft 204 kts 247°
2026-05-06 16:51 50.43263 4.35969 3609 ft 208 kts 246°
2026-05-06 16:52 50.42626 4.33926 4360 ft 209 kts 245°
2026-05-06 16:52 50.42015 4.31868 5163 ft 207 kts 245°
2026-05-06 16:52 50.41403 4.29813 5883 ft 210 kts 245°
2026-05-06 16:52 50.40680 4.27816 6507 ft 212 kts 225°
2026-05-06 16:53 50.39412 4.26530 6826 ft 230 kts 195°
2026-05-06 16:53 50.37773 4.26308 7121 ft 247 kts 166°
2026-05-06 16:53 50.36208 4.27403 7651 ft 250 kts 144°
2026-05-06 16:53 50.34850 4.29045 8526 ft 246 kts 137°
2026-05-06 16:54 50.33560 4.30852 9237 ft 250 kts 128°
2026-05-06 16:54 50.32790 4.33239 9913 ft 250 kts 98°
2026-05-06 16:54 50.32826 4.36020 10216 ft 267 kts 78°
2026-05-06 16:54 50.33239 4.38974 10391 ft 291 kts 76°
2026-05-06 16:55 50.33743 4.42156 10608 ft 311 kts 75°
2026-05-06 16:55 50.34281 4.45510 11077 ft 323 kts 75°
2026-05-06 16:55 50.34826 4.48942 11791 ft 326 kts 76°
2026-05-06 16:55 50.35369 4.52410 12456 ft 332 kts 76°
2026-05-06 16:56 50.35910 4.55912 13380 ft 330 kts 76°
2026-05-06 16:56 50.36446 4.59421 14109 ft 334 kts 77°
2026-05-06 16:56 50.36989 4.62998 14685 ft 341 kts 77°
2026-05-06 16:56 50.37530 4.66637 15395 ft 345 kts 80°
2026-05-06 16:57 50.37733 4.70400 16063 ft 349 kts 93°
2026-05-06 16:57 50.37384 4.74179 16783 ft 351 kts 102°
2026-05-06 16:57 50.36895 4.77941 17497 ft 355 kts 102°
2026-05-06 16:57 50.36391 4.81752 18144 ft 360 kts 103°
2026-05-06 16:58 50.35881 4.85619 18712 ft 365 kts 102°
2026-05-06 16:58 50.35373 4.89516 19346 ft 367 kts 103°
2026-05-06 16:58 50.34866 4.93444 19952 ft 370 kts 103°
2026-05-06 16:58 50.34355 4.97422 20496 ft 375 kts 103°
2026-05-06 16:59 50.33839 5.01449 21053 ft 379 kts 103°
2026-05-06 16:59 50.33320 5.05506 21639 ft 382 kts 103°
2026-05-06 16:59 50.32795 5.09605 22154 ft 387 kts 103°
2026-05-06 16:59 50.32260 5.13766 22657 ft 392 kts 103°
2026-05-06 17:00 50.31720 5.17962 23216 ft 395 kts 103°
2026-05-06 17:00 50.31175 5.22183 23724 ft 398 kts 104°
2026-05-06 17:00 50.30625 5.26437 24195 ft 400 kts 104°
2026-05-06 17:00 50.30069 5.30721 24651 ft 403 kts 104°
2026-05-06 17:01 50.29506 5.35035 25123 ft 405 kts 104°
2026-05-06 17:01 50.28942 5.39357 25612 ft 407 kts 104°
2026-05-06 17:01 50.28371 5.43711 26053 ft 410 kts 104°
2026-05-06 17:01 50.27796 5.48084 26477 ft 412 kts 104°
2026-05-06 17:02 50.27216 5.52484 26884 ft 415 kts 105°
2026-05-06 17:02 50.26626 5.56933 27153 ft 422 kts 104°
2026-05-06 17:02 50.26027 5.61441 27492 ft 426 kts 104°
2026-05-06 17:02 50.25424 5.65980 27936 ft 427 kts 105°
2026-05-06 17:03 50.24817 5.70532 28371 ft 429 kts 105°
2026-05-06 17:03 50.24205 5.75102 28751 ft 431 kts 105°
2026-05-06 17:03 50.23586 5.79703 29108 ft 434 kts 105°
2026-05-06 17:03 50.22961 5.84339 29462 ft 437 kts 105°
2026-05-06 17:04 50.22332 5.88988 29815 ft 439 kts 105°
2026-05-06 17:04 50.21698 5.93667 30127 ft 442 kts 105°
2026-05-06 17:04 50.21057 5.98372 30388 ft 444 kts 105°
2026-05-06 17:05 50.19970 6.06322 30542 ft 456 kts 105°
2026-05-06 17:05 50.19307 6.11163 30892 ft 455 kts 106°
2026-05-06 17:05 50.18656 6.15987 31265 ft 456 kts 104°
2026-05-06 17:05 50.18317 6.20926 31622 ft 460 kts 95°
2026-05-06 17:06 50.18487 6.25934 31969 ft 464 kts 88°
2026-05-06 17:06 50.18835 6.30936 32337 ft 464 kts 87°
2026-05-06 17:06 50.19200 6.35939 32650 ft 464 kts 88°
2026-05-06 17:06 50.19552 6.40956 32986 ft 464 kts 88°
2026-05-06 17:07 50.19881 6.45964 33309 ft 464 kts 89°
2026-05-06 17:07 50.20194 6.50962 33658 ft 463 kts 89°
2026-05-06 17:07 50.20499 6.55966 33958 ft 463 kts 89°
2026-05-06 17:07 50.20800 6.60963 34251 ft 463 kts 89°
2026-05-06 17:08 50.21101 6.65959 34551 ft 461 kts 89°
2026-05-06 17:08 50.21395 6.70947 34858 ft 460 kts 89°
2026-05-06 17:08 50.21686 6.75919 35136 ft 460 kts 89°
2026-05-06 17:08 50.21973 6.80854 35393 ft 460 kts 89°
2026-05-06 17:09 50.22171 6.84734 35604 ft 459 kts 91°
2026-05-06 17:09 50.22094 6.89697 35772 ft 456 kts 98°
2026-05-06 17:09 50.21812 6.94631 35967 ft 456 kts 100°
2026-05-06 17:09 50.21495 6.99551 36243 ft 455 kts 100°
2026-05-06 17:10 50.21187 7.04468 36546 ft 454 kts 99°
2026-05-06 17:10 50.20898 7.09373 36796 ft 454 kts 99°
2026-05-06 17:10 50.20621 7.14310 36818 ft 458 kts 99°
2026-05-06 17:11 50.20082 7.24239 36838 ft 459 kts 99°
2026-05-06 17:11 50.19383 7.34068 36812 ft 449 kts 107°
2026-05-06 17:12 50.17515 7.43260 36819 ft 444 kts 114°
2026-05-06 17:12 50.15508 7.52363 36823 ft 445 kts 113°
2026-05-06 17:13 50.13535 7.61515 36826 ft 446 kts 112°
2026-05-06 17:13 50.11576 7.70696 36824 ft 447 kts 112°
2026-05-06 17:14 50.09610 7.79884 36811 ft 448 kts 113°
2026-05-06 17:14 50.07612 7.88999 36809 ft 446 kts 117°
2026-05-06 17:15 50.04543 7.97278 36834 ft 437 kts 129°
2026-05-06 17:15 50.01101 8.04995 36816 ft 437 kts 129°
2026-05-06 17:16 49.97659 8.12789 36818 ft 438 kts 129°
2026-05-06 17:16 49.94237 8.20614 36785 ft 438 kts 129°
2026-05-06 17:17 49.90822 8.28422 36811 ft 437 kts 129°
2026-05-06 17:17 49.87402 8.36216 36820 ft 437 kts 129°
2026-05-06 17:18 49.83789 8.43707 36802 ft 430 kts 140°
2026-05-06 17:18 49.79413 8.49933 36808 ft 427 kts 142°
2026-05-06 17:19 49.75050 8.56176 36810 ft 427 kts 142°
2026-05-06 17:19 49.72711 8.58934 36798 ft 420 kts 154°
2026-05-06 17:19 49.70115 8.60935 36811 ft 415 kts 162°
2026-05-06 17:20 49.64569 8.63026 36815 ft 409 kts 173°
2026-05-06 17:20 49.58952 8.64483 36807 ft 410 kts 173°
2026-05-06 17:21 49.53321 8.66013 36810 ft 411 kts 173°
2026-05-06 17:21 49.47685 8.67601 36809 ft 413 kts 170°
2026-05-06 17:22 49.42268 8.70724 36816 ft 420 kts 159°
2026-05-06 17:22 49.36970 8.74510 36811 ft 420 kts 158°
2026-05-06 17:23 49.31655 8.78247 36812 ft 420 kts 159°
2026-05-06 17:23 49.26327 8.81949 36810 ft 420 kts 159°
2026-05-06 17:24 49.21007 8.85633 36821 ft 420 kts 159°
2026-05-06 17:24 49.15677 8.89305 36931 ft 422 kts 159°
2026-05-06 17:25 49.10275 8.93006 36843 ft 428 kts 159°
2026-05-06 17:25 49.04886 8.96695 36830 ft 427 kts 159°
2026-05-06 17:26 48.99432 9.00423 36825 ft 427 kts 159°
2026-05-06 17:26 48.94056 9.04089 36817 ft 426 kts 159°
2026-05-06 17:27 48.88653 9.07763 36830 ft 425 kts 159°
2026-05-06 17:27 48.83259 9.11422 36824 ft 425 kts 159°
2026-05-06 17:28 48.77860 9.15077 36829 ft 424 kts 159°
2026-05-06 17:28 48.72468 9.18718 36812 ft 424 kts 160°
2026-05-06 17:29 48.67092 9.22342 36823 ft 422 kts 160°
2026-05-06 17:29 48.61728 9.25939 36833 ft 421 kts 161°
2026-05-06 17:30 48.56278 9.29124 36832 ft 419 kts 163°
2026-05-06 17:30 48.50798 9.32120 36850 ft 419 kts 163°
2026-05-06 17:31 48.45323 9.35150 36849 ft 419 kts 163°
2026-05-06 17:31 48.39847 9.38207 36851 ft 420 kts 163°
2026-05-06 17:32 48.34368 9.41266 36854 ft 420 kts 163°
2026-05-06 17:32 48.28887 9.44317 36856 ft 420 kts 163°
2026-05-06 17:33 48.23656 9.48335 36839 ft 428 kts 147°
2026-05-06 17:33 48.19073 9.53942 36855 ft 432 kts 144°
2026-05-06 17:34 48.14463 9.59713 36857 ft 432 kts 144°
2026-05-06 17:34 48.09856 9.65414 36849 ft 433 kts 145°
2026-05-06 17:35 48.05191 9.71131 36849 ft 434 kts 145°
2026-05-06 17:35 48.00517 9.76834 36849 ft 434 kts 145°
2026-05-06 17:36 47.93491 9.85379 36849 ft 434 kts 146°
2026-05-06 17:36 47.88812 9.91054 36857 ft 433 kts 146°
2026-05-06 17:37 47.84136 9.96713 36861 ft 433 kts 146°
2026-05-06 17:37 47.79461 10.02356 36860 ft 432 kts 146°
2026-05-06 17:38 47.74795 10.07976 36872 ft 431 kts 146°
2026-05-06 17:38 47.70139 10.13569 36843 ft 430 kts 146°
2026-05-06 17:39 47.65490 10.19142 36877 ft 429 kts 146°
2026-05-06 17:39 47.60857 10.24685 36876 ft 428 kts 146°
2026-05-06 17:40 47.56224 10.30210 36887 ft 426 kts 147°
2026-05-06 17:40 47.51392 10.35190 36881 ft 422 kts 152°
2026-05-06 17:41 47.46432 10.39884 36892 ft 425 kts 152°
2026-05-06 17:41 47.41445 10.44665 36862 ft 428 kts 152°
2026-05-06 17:42 47.36480 10.49477 36875 ft 427 kts 152°
2026-05-06 17:42 47.31517 10.54282 36841 ft 427 kts 152°
2026-05-06 17:43 47.26411 10.58591 36848 ft 419 kts 162°
2026-05-06 17:43 47.21048 10.61819 36862 ft 420 kts 163°
2026-05-06 17:44 47.15597 10.65092 36810 ft 420 kts 162°
2026-05-06 17:44 47.10233 10.68353 36839 ft 421 kts 162°
2026-05-06 17:45 47.04826 10.71649 36820 ft 421 kts 162°
2026-05-06 17:45 46.99452 10.74888 36891 ft 413 kts 164°
2026-05-06 17:46 46.94108 10.78119 36871 ft 417 kts 162°
2026-05-06 17:46 46.88742 10.81416 36860 ft 419 kts 162°
2026-05-06 17:47 46.83341 10.84694 36850 ft 421 kts 163°
2026-05-06 17:47 46.77938 10.87965 36864 ft 421 kts 162°
2026-05-06 17:48 46.72827 10.92252 36885 ft 427 kts 153°
2026-05-06 17:48 46.67850 10.96987 36882 ft 429 kts 153°
2026-05-06 17:49 46.62844 11.01735 36884 ft 429 kts 153°
2026-05-06 17:49 46.57820 11.06437 36894 ft 429 kts 154°
2026-05-06 17:50 46.52801 11.11099 36879 ft 426 kts 154°
2026-05-06 17:50 46.47795 11.15721 36904 ft 427 kts 154°
2026-05-06 17:51 46.42771 11.20348 36894 ft 429 kts 154°
2026-05-06 17:51 46.38474 11.24298 36945 ft 431 kts 154°
2026-05-06 17:52 46.34267 11.28163 36858 ft 430 kts 154°
2026-05-06 17:52 46.29223 11.32791 36855 ft 429 kts 154°
2026-05-06 17:53 46.24202 11.37387 36887 ft 427 kts 154°
2026-05-06 17:53 46.19194 11.41957 36885 ft 424 kts 154°
2026-05-06 17:54 46.14209 11.46498 36912 ft 424 kts 154°
2026-05-06 17:54 46.09222 11.51033 36917 ft 422 kts 154°
2026-05-06 17:55 46.04245 11.55541 36927 ft 423 kts 154°
2026-05-06 17:55 45.99258 11.60050 36910 ft 423 kts 154°
2026-05-06 17:56 45.94275 11.64550 36912 ft 423 kts 155°
2026-05-06 17:56 45.89292 11.69040 36899 ft 422 kts 155°
2026-05-06 17:57 45.84314 11.73511 36925 ft 422 kts 155°
2026-05-06 17:57 45.79328 11.77986 36911 ft 424 kts 155°
2026-05-06 17:58 45.74356 11.82438 36922 ft 424 kts 155°
2026-05-06 17:58 45.69348 11.86912 36917 ft 424 kts 155°
2026-05-06 17:59 45.64333 11.91381 36914 ft 425 kts 155°
2026-05-06 17:59 45.59313 11.95846 36915 ft 425 kts 155°
2026-05-06 18:00 45.54290 12.00304 36915 ft 425 kts 155°
2026-05-06 18:00 45.49261 12.04759 36903 ft 425 kts 155°
2026-05-06 18:01 45.44242 12.09195 36893 ft 425 kts 155°
2026-05-06 18:01 45.39224 12.13621 36889 ft 424 kts 155°
2026-05-06 18:02 45.34207 12.18036 36888 ft 424 kts 155°
2026-05-06 18:02 45.29200 12.22433 36878 ft 423 kts 156°
2026-05-06 18:03 45.24188 12.26825 36882 ft 423 kts 156°
2026-05-06 18:03 45.19181 12.31203 36883 ft 423 kts 156°
2026-05-06 18:04 45.14174 12.35572 36887 ft 423 kts 156°
2026-05-06 18:04 45.09159 12.39940 36870 ft 423 kts 156°
2026-05-06 18:05 45.04135 12.44304 36887 ft 425 kts 156°
2026-05-06 18:05 44.99084 12.48683 36898 ft 427 kts 156°
2026-05-06 18:06 44.94007 12.53076 36893 ft 429 kts 156°
2026-05-06 18:06 44.88934 12.57457 36894 ft 431 kts 156°
2026-05-06 18:07 44.83802 12.61880 36903 ft 433 kts 156°
2026-05-06 18:07 44.78657 12.66305 36896 ft 434 kts 156°
2026-05-06 18:08 44.73497 12.70734 36906 ft 435 kts 156°
2026-05-06 18:08 44.68331 12.75158 36903 ft 435 kts 156°
2026-05-06 18:09 44.63160 12.79578 36899 ft 435 kts 156°
2026-05-06 18:09 44.60573 12.81785 36777 ft 436 kts 156°
2026-05-06 18:09 44.57997 12.83983 36470 ft 431 kts 156°
2026-05-06 18:10 44.55458 12.86151 36217 ft 423 kts 156°
2026-05-06 18:10 44.52962 12.88280 35955 ft 416 kts 156°
2026-05-06 18:10 44.50502 12.90373 35674 ft 412 kts 156°
2026-05-06 18:10 44.48063 12.92444 35419 ft 408 kts 156°
2026-05-06 18:11 44.45647 12.94492 35179 ft 405 kts 157°
2026-05-06 18:11 44.43247 12.96524 34903 ft 400 kts 157°
2026-05-06 18:11 44.40884 12.98524 34581 ft 395 kts 157°
2026-05-06 18:11 44.38541 13.00505 34220 ft 392 kts 157°
2026-05-06 18:12 44.36218 13.02466 33811 ft 390 kts 158°
2026-05-06 18:12 44.33898 13.04420 33275 ft 390 kts 158°
2026-05-06 18:12 44.31577 13.06372 32764 ft 389 kts 158°
2026-05-06 18:12 44.29264 13.08319 32325 ft 387 kts 157°
2026-05-06 18:13 44.26963 13.10255 31913 ft 385 kts 157°
2026-05-06 18:13 44.24679 13.12176 31504 ft 383 kts 157°
2026-05-06 18:13 44.22398 13.14092 31008 ft 382 kts 157°
2026-05-06 18:13 44.20112 13.16007 30454 ft 385 kts 157°
2026-05-06 18:14 44.17814 13.17931 30053 ft 384 kts 157°
2026-05-06 18:14 44.15534 13.19843 29676 ft 380 kts 157°
2026-05-06 18:14 44.13280 13.21734 29288 ft 377 kts 157°
2026-05-06 18:14 44.11048 13.23603 28871 ft 374 kts 157°
2026-05-06 18:15 44.08827 13.25459 28442 ft 371 kts 156°
2026-05-06 18:15 44.06617 13.27304 28033 ft 369 kts 156°
2026-05-06 18:15 44.04427 13.29129 27634 ft 366 kts 156°
2026-05-06 18:15 44.02250 13.30943 27239 ft 364 kts 156°
2026-05-06 18:16 44.00086 13.32745 26846 ft 361 kts 156°
2026-05-06 18:16 43.97938 13.34532 26459 ft 359 kts 156°
2026-05-06 18:16 43.95802 13.36306 26092 ft 357 kts 156°
2026-05-06 18:16 43.93678 13.38070 25725 ft 354 kts 156°
2026-05-06 18:17 43.91569 13.39820 25359 ft 352 kts 156°
2026-05-06 18:17 43.89471 13.41558 24993 ft 350 kts 156°
2026-05-06 18:17 43.87384 13.43287 24638 ft 348 kts 156°
2026-05-06 18:17 43.85308 13.45005 24285 ft 347 kts 156°
2026-05-06 18:18 43.83243 13.46712 23942 ft 345 kts 156°
2026-05-06 18:18 43.81192 13.48407 23599 ft 343 kts 156°
2026-05-06 18:18 43.79166 13.50079 23084 ft 345 kts 156°
2026-05-06 18:18 43.77076 13.51800 22609 ft 345 kts 155°
2026-05-06 18:19 43.75053 13.53469 22298 ft 341 kts 155°
2026-05-06 18:19 43.73005 13.55157 21972 ft 337 kts 155°
2026-05-06 18:19 43.70997 13.56812 21606 ft 335 kts 155°
2026-05-06 18:19 43.69027 13.58432 21250 ft 333 kts 155°
2026-05-06 18:20 43.67051 13.60055 20912 ft 330 kts 155°
2026-05-06 18:20 43.65140 13.61624 20592 ft 327 kts 155°
2026-05-06 18:20 43.63180 13.63232 20263 ft 325 kts 155°
2026-05-06 18:20 43.61241 13.64822 19926 ft 323 kts 155°
2026-05-06 18:21 43.59315 13.66399 19583 ft 321 kts 154°
2026-05-06 18:21 43.57398 13.67968 19251 ft 319 kts 154°
2026-05-06 18:21 43.55495 13.69525 18944 ft 317 kts 153°
2026-05-06 18:21 43.53605 13.71069 18643 ft 314 kts 153°
2026-05-06 18:22 43.51731 13.72600 18338 ft 312 kts 153°
2026-05-06 18:22 43.49866 13.74123 17990 ft 311 kts 153°
2026-05-06 18:22 43.48011 13.75636 17610 ft 310 kts 153°
2026-05-06 18:22 43.46160 13.77145 17218 ft 309 kts 153°
2026-05-06 18:23 43.44316 13.78646 16864 ft 307 kts 153°
2026-05-06 18:23 43.42479 13.80142 16507 ft 306 kts 153°
2026-05-06 18:23 43.40647 13.81632 16139 ft 305 kts 153°
2026-05-06 18:23 43.38822 13.83117 15798 ft 304 kts 153°
2026-05-06 18:24 43.37004 13.84593 15433 ft 304 kts 153°
2026-05-06 18:24 43.35188 13.86067 15074 ft 303 kts 153°
2026-05-06 18:24 43.33374 13.87532 14749 ft 302 kts 154°
2026-05-06 18:24 43.31507 13.88806 14423 ft 298 kts 160°
2026-05-06 18:25 43.29604 13.89919 14103 ft 297 kts 161°
2026-05-06 18:25 43.27698 13.90996 13778 ft 296 kts 161°
2026-05-06 18:25 43.25822 13.92057 13429 ft 295 kts 161°
2026-05-06 18:25 43.23932 13.93134 13097 ft 293 kts 161°
2026-05-06 18:26 43.22027 13.94228 12754 ft 292 kts 160°
2026-05-06 18:26 43.20184 13.95292 12420 ft 291 kts 160°
2026-05-06 18:26 43.18296 13.96386 12068 ft 290 kts 160°
2026-05-06 18:26 43.16445 13.97461 11735 ft 289 kts 160°
2026-05-06 18:27 43.14601 13.98533 11430 ft 287 kts 160°
2026-05-06 18:27 43.12762 13.99603 11100 ft 286 kts 160°
2026-05-06 18:27 43.10932 14.00667 10772 ft 286 kts 160°
2026-05-06 18:27 43.09106 14.01729 10457 ft 285 kts 160°
2026-05-06 18:28 43.07307 14.02774 10151 ft 284 kts 160°
2026-05-06 18:28 43.05488 14.03831 9844 ft 283 kts 160°
2026-05-06 18:28 43.03676 14.04884 9516 ft 282 kts 160°
2026-05-06 18:28 43.01874 14.05929 9198 ft 281 kts 160°
2026-05-06 18:29 43.00082 14.06969 8898 ft 279 kts 160°
2026-05-06 18:29 42.98299 14.08002 8584 ft 278 kts 159°
2026-05-06 18:29 42.96526 14.09029 8281 ft 276 kts 159°
2026-05-06 18:29 42.94760 14.10051 7968 ft 275 kts 159°
2026-05-06 18:30 42.93001 14.11069 7667 ft 274 kts 159°
2026-05-06 18:30 42.91252 14.12081 7380 ft 272 kts 159°
2026-05-06 18:30 42.89510 14.13088 7085 ft 271 kts 159°
2026-05-06 18:30 42.87777 14.14088 6795 ft 270 kts 159°
2026-05-06 18:31 42.86051 14.15084 6508 ft 269 kts 159°
2026-05-06 18:31 42.84341 14.16105 6218 ft 268 kts 152°
2026-05-06 18:31 42.82980 14.17821 5894 ft 270 kts 126°
2026-05-06 18:31 42.82002 14.19997 5618 ft 269 kts 122°
2026-05-06 18:32 42.81046 14.22179 5307 ft 268 kts 123°
2026-05-06 18:32 42.80086 14.24357 4969 ft 269 kts 124°
2026-05-06 18:32 42.79122 14.26533 4709 ft 266 kts 124°
2026-05-06 18:32 42.78163 14.28678 4425 ft 264 kts 123°
2026-05-06 18:33 42.77191 14.30787 4138 ft 262 kts 127°
2026-05-06 18:33 42.76056 14.32719 3836 ft 260 kts 131°
2026-05-06 18:33 42.74891 14.34600 3540 ft 259 kts 132°
2026-05-06 18:33 42.73746 14.36479 3288 ft 257 kts 131°
2026-05-06 18:34 42.72618 14.38354 3007 ft 256 kts 130°
2026-05-06 18:34 42.71500 14.40225 2767 ft 253 kts 130°
2026-05-06 18:34 42.70353 14.42045 2447 ft 253 kts 140°
2026-05-06 18:34 42.68788 14.42994 2146 ft 250 kts 176°
2026-05-06 18:35 42.67130 14.42433 2040 ft 252 kts 210°
2026-05-06 18:35 42.65623 14.41175 2032 ft 255 kts 209°
2026-05-06 18:35 42.64101 14.39934 1987 ft 255 kts 212°
2026-05-06 18:35 42.62648 14.38564 1984 ft 253 kts 215°
2026-05-06 18:36 42.61253 14.37133 1970 ft 250 kts 217°
2026-05-06 18:36 42.59883 14.35705 1982 ft 247 kts 217°
2026-05-06 18:36 42.58517 14.34283 2018 ft 248 kts 216°
2026-05-06 18:36 42.57151 14.32865 1991 ft 249 kts 217°
2026-05-06 18:37 42.55767 14.31429 1993 ft 252 kts 216°
2026-05-06 18:37 42.54848 14.30476 1985 ft 251 kts 216°
2026-05-06 18:37 42.52997 14.28554 1974 ft 250 kts 217°
2026-05-06 18:37 42.51622 14.27127 1908 ft 248 kts 217°
2026-05-06 18:38 42.50264 14.25717 1592 ft 241 kts 217°
2026-05-06 18:38 42.48982 14.24385 1276 ft 221 kts 217°
2026-05-06 18:38 42.47825 14.23183 1008 ft 200 kts 217°
2026-05-06 18:38 42.46766 14.22084 756 ft 184 kts 217°
2026-05-06 18:39 42.46112 14.21405 616 ft 174 kts 218°
2026-05-06 18:39 42.45198 14.20463 467 ft 160 kts 217°
2026-05-06 18:39 42.44346 14.19576 200 ft 148 kts 219°
2026-05-06 18:40 42.42945 14.18116 46 ft 97 kts 216°
2026-05-06 18:40 42.42587 14.17907 46 ft 23 kts 157°
2026-05-06 18:40 42.42554 14.17996 47 ft 7 kts 59°
2026-05-06 18:40 42.42582 14.18027 47 ft 5 kts 35°
2026-05-06 18:41 42.42613 14.18057 46 ft 6 kts 35°
2026-05-06 18:41 42.42645 14.18088 47 ft 6 kts 36°
2026-05-06 18:41 42.42681 14.18123 47 ft 7 kts 36°
2026-05-06 18:41 42.42725 14.18169 47 ft 9 kts 37°
2026-05-06 18:42 42.42782 14.18227 47 ft 11 kts 37°
2026-05-06 18:42 42.42844 14.18292 47 ft 11 kts 37°
2026-05-06 18:42 42.42913 14.18363 46 ft 13 kts 37°
2026-05-06 18:42 42.42985 14.18437 46 ft 13 kts 39°
2026-05-06 18:43 42.43018 14.18544 44 ft 12 kts 83°
2026-05-06 18:43 42.43051 14.18647 47 ft 12 kts 43°
2026-05-06 18:43 42.43080 14.18676 47 ft 3 kts 36°
2026-05-06 18:43 42.43088 14.18706 47 ft 3 kts 102°
2026-05-06 18:44 42.43076 14.18734 47 ft 4 kts 126°
2026-05-06 18:44 42.43062 14.18758 46 ft 0 kts 128°